Tracking 28794 objects as of 19-Apr-2024
HD Live streaming from Space Station
objects crossing your sky now

POLAR SCOUT YUKON

Track POLAR SCOUT YUKON now!
10-day predictions


NORAD ID: 43808
Int'l Code: 2018-099BC
Perigee: 548.0 km
Apogee: 561.5 km
Inclination: 97.6 °
Period: 95.6 minutes
Semi major axis: 6925 km
RCS: Unknown
Launch date: December 3, 2018
Source: United States (US)
Launch site: AIR FORCE WESTERN TEST RANGE (AFWTR)
Your satellite tracking list
Your tracking list is empty




NASA's NSSDC Master Catalog

Two Line Element Set (TLE):
1 43808U 18099BC  24110.14122712  .00015188  00000-0  10364-2 0  9997
2 43808  97.5641 173.1769 0009740 194.4835 165.6115 15.06261462293546
Source of the keplerian elements: AFSPC